| time (UTC) | temp F | wind direction | speed MPH | gust MPH | rain 1hr in | rain 24hr in | rain mn in | humidity % | barometer mb |
| 20260902150117 | 73 | 0.0 | 0.0 | 0.00 | 0.00 | 0.00 | 34 | 1020.6 | |
| 20260902145116 | 72 | 0.0 | 0.0 | 0.00 | 0.00 | 0.00 | 35 | 1020.6 | |
| 20260902144116 | 72 | 0.0 | 0.0 | 0.00 | 0.00 | 0.00 | 36 | 1020.7 | |
| 20260902143117 | 71 | 0.0 | 0.0 | 0.00 | 0.00 | 0.00 | 38 | 1020.8 | |
| 20260902142116 | 71 | 0.0 | 0.0 | 0.00 | 0.00 | 0.00 | 38 | 1020.8 | |
| 20260902141116 | 71 | 0.0 | 0.0 | 0.00 | 0.00 | 0.00 | 36 | 1020.8 | |
| 20260902140116 | 71 | 0.0 | 0.0 | 0.00 | 0.00 | 0.00 | 37 | 1020.8 | |
| 20260902135116 | 72 | 0.0 | 0.0 | 0.00 | 0.00 | 0.00 | 36 | 1020.8 | |
| 20260902134116 | 71 | 0.0 | 0.0 | 0.00 | 0.00 | 0.00 | 37 | 1020.8 | |
| 20260902133116 | 71 | 0.0 | 0.0 | 0.00 | 0.00 | 0.00 | 36 | 1020.8 | |
| 20260902132116 | 71 | 0.0 | 0.0 | 0.00 | 0.00 | 0.00 | 35 | 1020.9 | |
| 20260902125851 | 73 | 0.0 | 0.0 | 0.00 | 0.00 | 0.00 | 36 | 1021.1 | |
| 20260902124851 | 71 | 0.0 | 0.0 | 0.00 | 0.00 | 0.00 | 36 | 1021.2 | |
| 20260902123851 | 73 | 0.0 | 0.0 | 0.00 | 0.00 | 0.00 | 35 | 1021.2 | |
| 20260902122851 | 71 | 0.0 | 0.0 | 0.00 | 0.00 | 0.00 | 36 | 1021.3 | |
| 20260902121850 | 71 | 0.0 | 0.0 | 0.00 | 0.00 | 0.00 | 34 | 1021.4 | |
| 20260902115627 | 75 | 0.0 | 0.0 | 0.00 | 0.00 | 0.00 | 33 | 1021.5 | |
| 20260902114627 | 74 | 0.0 | 0.0 | 0.00 | 0.00 | 0.00 | 35 | 1021.6 | |
| 20260902113627 | 73 | 0.0 | 0.0 | 0.00 | 0.00 | 0.00 | 37 | 1021.7 | |
| 20260902112627 | 72 | 0.0 | 0.0 | 0.00 | 0.00 | 0.00 | 42 | 1021.8 | |
| 20260902110404 | 71 | 0.0 | 0.0 | 0.00 | 0.00 | 0.00 | 36 | 1022.0 | |
| 20260902105404 | 70 | 0.0 | 0.0 | 0.00 | 0.00 | 0.00 | 40 | 1022.0 | |
| 20260902103140 | 71 | 0.0 | 0.0 | 0.00 | 0.00 | 0.00 | 40 | 1022.0 | |
| 20260902102140 | 72 | 0.0 | 0.0 | 0.00 | 0.00 | 0.00 | 39 | 1022.2 | |
| 20260902101140 | 69 | 0.0 | 0.0 | 0.00 | 0.00 | 0.00 | 40 | 1022.2 | |
| 20260902100140 | 71 | 0.0 | 0.0 | 0.00 | 0.00 | 0.00 | 39 | 1022.4 | |
| 20260902093916 | 73 | 0.0 | 0.0 | 0.00 | 0.00 | 0.00 | 36 | 1022.5 | |
| 20260902092916 | 69 | 0.0 | 0.0 | 0.00 | 0.00 | 0.00 | 41 | 1022.5 | |
| 20260902091916 | 72 | 0.0 | 0.0 | 0.00 | 0.00 | 0.00 | 41 | 1022.4 | |
| 20260902090916 | 68 | 0.0 | 0.0 | 0.00 | 0.00 | 0.00 | 44 | 1022.5 | |
| 20260902085916 | 69 | 0.0 | 0.0 | 0.00 | 0.00 | 0.00 | 44 | 1022.7 | |
| 20260902084916 | 68 | 0.0 | 0.0 | 0.00 | 0.00 | 0.00 | 46 | 1022.8 | |
| 20260902083916 | 68 | 0.0 | 0.0 | 0.00 | 0.00 | 0.00 | 47 | 1022.8 | |
| 20260902080429 | 65 | 0.0 | 0.0 | 0.00 | 0.00 | 0.00 | 52 | 1022.9 | |
| 20260902075428 | 65 | 0.0 | 0.0 | 0.00 | 0.00 | 0.00 | 54 | 1022.8 | |
| 20260902074428 | 63 | 0.0 | 0.0 | 0.00 | 0.00 | 0.00 | 56 | 1022.8 | |
| 20260902073428 | 63 | 0.0 | 0.0 | 0.00 | 0.00 | 0.00 | 56 | 1022.9 | |
| 20260902072428 | 64 | 0.0 | 0.0 | 0.00 | 0.00 | 0.00 | 54 | 1022.9 | |
| 20260902071428 | 66 | 0.0 | 0.0 | 0.00 | 0.00 | 0.00 | 51 | 1022.9 | |
| 20260902070429 | 64 | 0.0 | 0.0 | 0.00 | 0.00 | 0.00 | 54 | 1022.8 | |
| 20260902065428 | 63 | 0.0 | 0.0 | 0.00 | 0.00 | 0.00 | 56 | 1022.8 | |
| 20260902064428 | 62 | 0.0 | 0.0 | 0.00 | 0.00 | 0.00 | 57 | 1022.8 | |
| 20260902063428 | 62 | 0.0 | 0.0 | 0.00 | 0.00 | 0.00 | 54 | 1022.8 | |
| 20260902061205 | 63 | 0.0 | 0.0 | 0.00 | 0.00 | 0.00 | 54 | 1022.6 | |
| 20260902060205 | 61 | 0.0 | 0.0 | 0.00 | 0.00 | 0.00 | 57 | 1022.6 | |
| 20260902055205 | 62 | 0.0 | 0.0 | 0.00 | 0.00 | 0.00 | 56 | 1022.6 | |
| 20260902054205 | 61 | 0.0 | 0.0 | 0.00 | 0.00 | 0.00 | 57 | 1022.5 | |
| 20260902051941 | 60 | 0.0 | 0.0 | 0.00 | 0.00 | 0.00 | 58 | 1022.4 | |
| 20260902050941 | 60 | 0.0 | 0.0 | 0.00 | 0.00 | 0.00 | 59 | 1022.4 | |
| 20260902045942 | 59 | 0.0 | 0.0 | 0.00 | 0.00 | 0.00 | 61 | 1022.5 | |
| 20260902044942 | 58 | 0.0 | 0.0 | 0.00 | 0.00 | 0.00 | 63 | 1022.5 | |
| 20260902042717 | 58 | 0.0 | 0.0 | 0.00 | 0.00 | 0.00 | 63 | 1022.4 | |
| 20260902041718 | 58 | 0.0 | 0.0 | 0.00 | 0.00 | 0.00 | 63 | 1022.4 | |
| 20260902040717 | 58 | 0.0 | 0.0 | 0.00 | 0.00 | 0.00 | 63 | 1022.4 | |
| 20260902035717 | 58 | 0.0 | 0.0 | 0.00 | 0.00 | 0.00 | 63 | 1022.4 | |
| 20260902034717 | 59 | 0.0 | 0.0 | 0.00 | 0.00 | 0.00 | 62 | 1022.4 | |
| 20260902033717 | 59 | 0.0 | 0.0 | 0.00 | 0.00 | 0.00 | 63 | 1022.4 | |
| 20260902032717 | 58 | 0.0 | 0.0 | 0.00 | 0.00 | 0.00 | 64 | 1022.4 | |
| 20260902024006 | 59 | 0.0 | 0.0 | 0.00 | 0.00 | 0.00 | 61 | 1022.4 | |
| 20260902023006 | 59 | 0.0 | 0.0 | 0.00 | 0.00 | 0.00 | 61 | 1022.4 | |
| 20260902022006 | 59 | 0.0 | 0.0 | 0.00 | 0.00 | 0.00 | 61 | 1022.4 | |
| 20260902021006 | 59 | 0.0 | 0.0 | 0.00 | 0.00 | 0.00 | 60 | 1022.4 | |
| 20260902020006 | 59 | 0.0 | 0.0 | 0.00 | 0.00 | 0.00 | 60 | 1022.5 | |
| 20260902015006 | 60 | 0.0 | 0.0 | 0.00 | 0.00 | 0.00 | 59 | 1022.5 | |
| 20260902014006 | 60 | 0.0 | 0.0 | 0.00 | 0.00 | 0.00 | 59 | 1022.5 | |
| 20260902013006 | 59 | 0.0 | 0.0 | 0.00 | 0.00 | 0.00 | 59 | 1022.6 | |
| 20260902012006 | 60 | 0.0 | 0.0 | 0.00 | 0.00 | 0.00 | 59 | 1022.6 | |
| 20260902011006 | 60 | 0.0 | 0.0 | 0.00 | 0.00 | 0.00 | 59 | 1022.5 | |
| 20260902010006 | 60 | 0.0 | 0.0 | 0.00 | 0.00 | 0.00 | 58 | 1022.6 | |
| 20260902003743 | 60 | 0.0 | 0.0 | 0.00 | 0.00 | 0.00 | 57 | 1022.6 | |
| 20260902000257 | 60 | 0.0 | 0.0 | 0.00 | 0.00 | 0.00 | 57 | 1022.6 | |
| 20260901235256 | 61 | 0.0 | 0.0 | 0.00 | 0.00 | 0.00 | 57 | 1022.5 | |
| 20260901234256 | 61 | 0.0 | 0.0 | 0.00 | 0.00 | 0.00 | 57 | 1022.5 | |
| 20260901233256 | 61 | 0.0 | 0.0 | 0.00 | 0.00 | 0.00 | 56 | 1022.6 | |
| 20260901232256 | 61 | 0.0 | 0.0 | 0.00 | 0.00 | 0.00 | 56 | 1022.6 | |
| 20260901230032 | 62 | 0.0 | 0.0 | 0.00 | 0.00 | 0.00 | 55 | 1022.7 | |
| 20260901223808 | 62 | 0.0 | 0.0 | 0.00 | 0.00 | 0.00 | 54 | 1022.7 | |
| 20260901222809 | 62 | 0.0 | 0.0 | 0.00 | 0.00 | 0.00 | 54 | 1022.7 | |
| 20260901221809 | 62 | 0.0 | 0.0 | 0.00 | 0.00 | 0.00 | 54 | 1022.7 | |
| 20260901220809 | 62 | 0.0 | 0.0 | 0.00 | 0.00 | 0.00 | 54 | 1022.8 | |
| 20260901215808 | 62 | 0.0 | 0.0 | 0.00 | 0.00 | 0.00 | 53 | 1022.7 | |
| 20260901213539 | 62 | 0.0 | 0.0 | 0.00 | 0.00 | 0.00 | 53 | 1022.6 | |
| 20260901211316 | 63 | 0.0 | 0.0 | 0.00 | 0.00 | 0.00 | 51 | 1022.6 | |
| 20260901205051 | 64 | 0.0 | 0.0 | 0.00 | 0.00 | 0.00 | 51 | 1022.5 | |
| 20260901204051 | 64 | 0.0 | 0.0 | 0.00 | 0.00 | 0.00 | 50 | 1022.4 | |
| 20260901203051 | 64 | 0.0 | 0.0 | 0.00 | 0.00 | 0.00 | 50 | 1022.4 | |
| 20260901202051 | 64 | 0.0 | 0.0 | 0.00 | 0.00 | 0.00 | 50 | 1022.5 | |
| 20260901201051 | 64 | 0.0 | 0.0 | 0.00 | 0.00 | 0.00 | 50 | 1022.5 | |
| 20260901200051 | 64 | 0.0 | 0.0 | 0.00 | 0.00 | 0.00 | 51 | 1022.4 | |
| 20260901195051 | 64 | 0.0 | 0.0 | 0.00 | 0.00 | 0.00 | 52 | 1022.3 | |
| 20260901194051 | 63 | 0.0 | 0.0 | 0.00 | 0.00 | 0.00 | 52 | 1022.3 | |
| 20260901193051 | 64 | 0.0 | 0.0 | 0.00 | 0.00 | 0.00 | 51 | 1022.2 | |
| 20260901185608 | 63 | 0.0 | 0.0 | 0.00 | 0.00 | 0.00 | 52 | 1022.0 | |
| 20260901184604 | 63 | 0.0 | 0.0 | 0.00 | 0.00 | 0.00 | 51 | 1021.9 | |
| 20260901183604 | 64 | 0.0 | 0.0 | 0.00 | 0.00 | 0.00 | 51 | 1021.9 | |
| 20260901182604 | 64 | 0.0 | 0.0 | 0.00 | 0.00 | 0.00 | 50 | 1021.8 | |
| 20260901181604 | 64 | 0.0 | 0.0 | 0.00 | 0.00 | 0.00 | 50 | 1021.8 | |
| 20260901180604 | 64 | 0.0 | 0.0 | 0.00 | 0.00 | 0.00 | 50 | 1021.6 | |
| 20260901173116 | 65 | 0.0 | 0.0 | 0.00 | 0.00 | 0.00 | 46 | 1021.4 | |
| 20260901172116 | 66 | 0.0 | 0.0 | 0.00 | 0.00 | 0.00 | 45 | 1021.4 | |
| 20260901171116 | 67 | 0.0 | 0.0 | 0.00 | 0.00 | 0.00 | 45 | 1021.3 | |
| 20260901170116 | 67 | 0.0 | 0.0 | 0.00 | 0.00 | 0.00 | 43 | 1021.3 | |
| 20260901165116 | 67 | 0.0 | 0.0 | 0.00 | 0.00 | 0.00 | 43 | 1021.3 | |
| 20260901164116 | 68 | 0.0 | 0.0 | 0.00 | 0.00 | 0.00 | 42 | 1021.2 | |
| 20260901163116 | 67 | 0.0 | 0.0 | 0.00 | 0.00 | 0.00 | 42 | 1021.3 | |
| 20260901162116 | 69 | 0.0 | 0.0 | 0.00 | 0.00 | 0.00 | 41 | 1021.3 | |
| 20260901161116 | 69 | 0.0 | 0.0 | 0.00 | 0.00 | 0.00 | 41 | 1021.3 | |
| 20260901160116 | 68 | 0.0 | 0.0 | 0.00 | 0.00 | 0.00 | 41 | 1021.3 | |
| 20260901155116 | 69 | 0.0 | 0.0 | 0.00 | 0.00 | 0.00 | 41 | 1021.3 | |
| 20260901154116 | 69 | 0.0 | 0.0 | 0.00 | 0.00 | 0.00 | 41 | 1021.3 | |
| 20260901153116 | 69 | 0.0 | 0.0 | 0.00 | 0.00 | 0.00 | 42 | 1021.3 | |
| 20260901152116 | 70 | 0.0 | 0.0 | 0.00 | 0.00 | 0.00 | 42 | 1021.3 | |
| 20260901151117 | 68 | 0.0 | 0.0 | 0.00 | 0.00 | 0.00 | 44 | 1021.4 |